| time (UTC) | temp F | wind direction | speed MPH | gust MPH | rain 1hr in | rain 24hr in | rain mn in | humidity % | barometer mb |
| 20260507202608 | 0 | 0.0 | 0.0 | 0.00 | 0.00 | 0.00 | 1013.0 | ||
| 20260507201602 | 0 | 0.0 | 0.0 | 0.00 | 0.00 | 0.00 | 1013.0 | ||
| 20260507200600 | 0 | 0.0 | 0.0 | 0.00 | 0.00 | 0.00 | 1013.0 | ||
| 20260507195553 | 0 | 0.0 | 0.0 | 0.00 | 0.00 | 0.00 | 1012.8 | ||
| 20260507194549 | 0 | 0.0 | 0.0 | 0.00 | 0.00 | 0.00 | 1012.6 | ||
| 20260507193544 | 0 | 0.0 | 0.0 | 0.00 | 0.00 | 0.00 | 1012.3 | ||
| 20260507192540 | 0 | 0.0 | 0.0 | 0.00 | 0.00 | 0.00 | 1012.1 | ||
| 20260507191537 | 0 | 0.0 | 0.0 | 0.00 | 0.00 | 0.00 | 1012.0 | ||
| 20260507190533 | 0 | 0.0 | 0.0 | 0.00 | 0.00 | 0.00 | 1012.0 | ||
| 20260507185527 | 0 | 0.0 | 0.0 | 0.00 | 0.00 | 0.00 | 1012.0 | ||
| 20260507184542 | 0 | 0.0 | 0.0 | 0.00 | 0.00 | 0.00 | 1011.8 | ||
| 20260507183516 | 0 | 0.0 | 0.0 | 0.00 | 0.00 | 0.00 | 1011.6 | ||
| 20260507182610 | 0 | 0.0 | 0.0 | 0.00 | 0.00 | 0.00 | 1011.6 | ||
| 20260507181628 | 0 | 315 | 2.0 | 6.0 | 0.00 | 0.00 | 0.00 | 1 | 1011.5 |
| 20260507180622 | 0 | 315 | 2.0 | 6.0 | 0.00 | 0.00 | 0.00 | 1 | 1011.4 |
| 20260507175557 | 0 | 315 | 2.0 | 6.0 | 0.00 | 0.00 | 0.00 | 1 | 1011.4 |
| 20260507174552 | 0 | 315 | 2.0 | 6.0 | 0.00 | 0.00 | 0.00 | 1 | 1011.3 |
| 20260507173545 | 0 | 315 | 3.0 | 8.0 | 0.00 | 0.00 | 0.00 | 1 | 1011.2 |
| 20260507172600 | 0 | 315 | 2.0 | 4.0 | 0.00 | 0.00 | 0.00 | 1 | 1011.2 |
| 20260507171535 | 0 | 315 | 2.0 | 9.0 | 0.00 | 0.00 | 0.00 | 1 | 1011.0 |
| 20260507170529 | 0 | 315 | 4.0 | 11.0 | 0.00 | 0.00 | 0.00 | 1 | 1011.0 |
| 20260507165545 | 0 | 315 | 4.0 | 7.0 | 0.00 | 0.00 | 0.00 | 1 | 1011.0 |
| 20260507164519 | 0 | 315 | 1.0 | 4.0 | 0.00 | 0.00 | 0.00 | 1 | 1010.9 |
| 20260507163615 | 0 | 315 | 2.0 | 7.0 | 0.00 | 0.00 | 0.00 | 1 | 1010.9 |
| 20260507162611 | 0 | 315 | 2.0 | 4.0 | 0.00 | 0.00 | 0.00 | 1 | 1010.8 |
| 20260507161624 | 0 | 315 | 3.0 | 7.0 | 0.00 | 0.00 | 0.00 | 1 | 1010.8 |
| 20260507160601 | 0 | 315 | 3.0 | 11.0 | 0.00 | 0.00 | 0.00 | 1 | 1010.9 |
| 20260507155556 | 0 | 315 | 3.0 | 9.0 | 0.00 | 0.00 | 0.00 | 1 | 1010.9 |
| 20260507154551 | 0 | 315 | 3.0 | 8.0 | 0.00 | 0.00 | 0.00 | 1 | 1011.0 |
| 20260507153545 | 0 | 315 | 4.0 | 9.0 | 0.00 | 0.00 | 0.00 | 1 | 1011.1 |
| 20260507152540 | 0 | 315 | 4.0 | 8.0 | 0.00 | 0.00 | 0.00 | 1 | 1010.9 |
| 20260507151536 | 0 | 315 | 3.0 | 9.0 | 0.00 | 0.00 | 0.00 | 1 | 1010.9 |
| 20260507150528 | 0 | 315 | 4.0 | 13.0 | 0.00 | 0.00 | 0.00 | 1 | 1011.0 |
| 20260507145524 | 0 | 315 | 3.0 | 7.0 | 0.00 | 0.00 | 0.00 | 1 | 1011.1 |
| 20260507144517 | 0 | 315 | 3.0 | 9.0 | 0.00 | 0.00 | 0.00 | 1 | 1011.2 |
| 20260507143613 | 0 | 315 | 4.0 | 11.0 | 0.00 | 0.00 | 0.00 | 1 | 1011.3 |
| 20260507142609 | 0 | 315 | 4.0 | 11.0 | 0.00 | 0.00 | 0.00 | 1 | 1011.5 |
| 20260507141622 | 0 | 315 | 4.0 | 11.0 | 0.00 | 0.00 | 0.00 | 1 | 1011.5 |
| 20260507140558 | 0 | 315 | 4.0 | 8.0 | 0.00 | 0.00 | 0.00 | 1 | 1011.6 |
| 20260507135554 | 0 | 315 | 3.0 | 8.0 | 0.00 | 0.00 | 0.00 | 1 | 1011.7 |
| 20260507134548 | 0 | 315 | 5.0 | 11.0 | 0.00 | 0.00 | 0.00 | 1 | 1011.9 |
| 20260507133603 | 0 | 315 | 4.0 | 15.0 | 0.00 | 0.00 | 0.00 | 1 | 1011.8 |
| 20260507132558 | 0 | 315 | 5.0 | 11.0 | 0.00 | 0.00 | 0.00 | 1 | 1011.7 |
| 20260507131533 | 0 | 315 | 5.0 | 11.0 | 0.00 | 0.00 | 0.00 | 1 | 1012.0 |
| 20260507130527 | 0 | 315 | 5.0 | 14.0 | 0.00 | 0.00 | 0.00 | 1 | 1012.0 |
| 20260507125542 | 0 | 315 | 6.0 | 15.0 | 0.00 | 0.00 | 0.00 | 1 | 1012.1 |
| 20260507124516 | 0 | 315 | 4.0 | 14.0 | 0.00 | 0.00 | 0.00 | 1 | 1012.0 |
| 20260507123610 | 0 | 315 | 5.0 | 11.0 | 0.00 | 0.00 | 0.00 | 1 | 1012.1 |
| 20260507122604 | 0 | 315 | 5.0 | 9.0 | 0.00 | 0.00 | 0.00 | 1 | 1012.2 |
| 20260507121557 | 0 | 315 | 5.0 | 15.0 | 0.00 | 0.00 | 0.00 | 1 | 1012.2 |
| 20260507120552 | 0 | 315 | 6.0 | 11.0 | 0.00 | 0.00 | 0.00 | 1 | 1012.2 |
| 20260507115548 | 0 | 315 | 3.0 | 7.0 | 0.00 | 0.00 | 0.00 | 1 | 1012.2 |
| 20260507114541 | 0 | 315 | 4.0 | 9.0 | 0.00 | 0.00 | 0.00 | 1 | 1012.2 |
| 20260507113536 | 0 | 315 | 3.0 | 6.0 | 0.00 | 0.00 | 0.00 | 1 | 1012.3 |
| 20260507112530 | 0 | 315 | 3.0 | 8.0 | 0.00 | 0.00 | 0.00 | 1 | 1012.4 |
| 20260507111526 | 0 | 315 | 2.0 | 7.0 | 0.00 | 0.00 | 0.00 | 1 | 1012.6 |
| 20260507110519 | 0 | 315 | 3.0 | 9.0 | 0.00 | 0.00 | 0.00 | 1 | 1012.7 |
| 20260507105515 | 0 | 315 | 4.0 | 9.0 | 0.00 | 0.00 | 0.00 | 1 | 1012.8 |
| 20260507104611 | 0 | 315 | 3.0 | 7.0 | 0.00 | 0.00 | 0.00 | 1 | 1012.7 |
| 20260507103605 | 0 | 315 | 2.0 | 7.0 | 0.00 | 0.00 | 0.00 | 1 | 1012.9 |
| 20260507102601 | 0 | 315 | 2.0 | 6.0 | 0.00 | 0.00 | 0.00 | 1 | 1013.0 |
| 20260507101556 | 0 | 315 | 3.0 | 7.0 | 0.00 | 0.00 | 0.00 | 1 | 1013.1 |
| 20260507100550 | 0 | 315 | 1.0 | 4.0 | 0.00 | 0.00 | 0.00 | 1 | 1013.2 |
| 20260507095544 | 0 | 315 | 5.0 | 9.0 | 0.00 | 0.00 | 0.00 | 1 | 1013.2 |
| 20260507094541 | 0 | 315 | 2.0 | 6.0 | 0.00 | 0.00 | 0.00 | 1 | 1013.2 |
| 20260507093535 | 0 | 315 | 2.0 | 9.0 | 0.00 | 0.00 | 0.00 | 1 | 1013.4 |
| 20260507092530 | 0 | 315 | 1.0 | 4.0 | 0.00 | 0.00 | 0.00 | 1 | 1013.3 |
| 20260507091526 | 0 | 315 | 1.0 | 4.0 | 0.00 | 0.00 | 0.00 | 1 | 1013.3 |
| 20260507090520 | 0 | 315 | 3.0 | 7.0 | 0.00 | 0.00 | 0.00 | 1 | 1013.0 |
| 20260507085535 | 0 | 315 | 2.0 | 4.0 | 0.00 | 0.00 | 0.00 | 1 | 1013.1 |
| 20260507084610 | 0 | 315 | 3.0 | 7.0 | 0.00 | 0.00 | 0.00 | 1 | 1013.1 |
| 20260507083605 | 0 | 315 | 4.0 | 8.0 | 0.00 | 0.00 | 0.00 | 1 | 1013.2 |
| 20260507082600 | 0 | 315 | 2.0 | 7.0 | 0.00 | 0.00 | 0.00 | 1 | 1013.2 |
| 20260507081555 | 0 | 315 | 4.0 | 9.0 | 0.00 | 0.00 | 0.00 | 1 | 1013.3 |
| 20260507080629 | 0 | 315 | 2.0 | 7.0 | 0.00 | 0.00 | 0.00 | 1 | 1013.4 |
| 20260507075544 | 0 | 315 | 1.0 | 4.0 | 0.00 | 0.00 | 0.00 | 1 | 1013.4 |
| 20260507074539 | 0 | 315 | 2.0 | 6.0 | 0.00 | 0.00 | 0.00 | 1 | 1013.5 |
| 20260507073534 | 0 | 315 | 1.0 | 4.0 | 0.00 | 0.00 | 0.00 | 1 | 1013.6 |
| 20260507072527 | 0 | 315 | 2.0 | 4.0 | 0.00 | 0.00 | 0.00 | 1 | 1013.6 |
| 20260507071521 | 0 | 315 | 2.0 | 6.0 | 0.00 | 0.00 | 0.00 | 1 | 1013.5 |
| 20260507070616 | 0 | 315 | 0.0 | 2.0 | 0.00 | 0.00 | 0.00 | 1 | 1013.5 |
| 20260507065609 | 0 | 315 | 1.0 | 4.0 | 0.00 | 0.00 | 0.00 | 1 | 1013.2 |
| 20260507064606 | 0 | 315 | 1.0 | 4.0 | 0.00 | 0.00 | 0.00 | 1 | 1013.0 |
| 20260507063559 | 0 | 315 | 1.0 | 2.0 | 0.00 | 0.00 | 0.00 | 1 | 1013.1 |
| 20260507062554 | 0 | 315 | 1.0 | 2.0 | 0.00 | 0.00 | 0.00 | 1 | 1012.9 |
| 20260507061547 | 0 | 315 | 1.0 | 2.0 | 0.00 | 0.00 | 0.00 | 1 | 1012.7 |
| 20260507060543 | 0 | 0.0 | 0.0 | 0.00 | 0.00 | 0.00 | 1 | 1012.7 | |
| 20260507055537 | 0 | 315 | 0.0 | 2.0 | 0.00 | 0.00 | 0.00 | 1 | 1012.7 |
| 20260507054533 | 0 | 315 | 0.0 | 2.0 | 0.00 | 0.00 | 0.00 | 1 | 1012.6 |
| 20260507053527 | 0 | 0.0 | 0.0 | 0.00 | 0.00 | 0.00 | 1 | 1012.6 | |
| 20260507052520 | 0 | 315 | 0.0 | 2.0 | 0.00 | 0.00 | 0.00 | 1 | 1012.4 |
| 20260507051535 | 0 | 315 | 1.0 | 2.0 | 0.00 | 0.00 | 0.00 | 1 | 1012.3 |
| 20260507050610 | 0 | 315 | 1.0 | 2.0 | 0.00 | 0.00 | 0.00 | 1 | 1012.2 |
| 20260507045606 | 0 | 315 | 0.0 | 2.0 | 0.00 | 0.00 | 0.00 | 1 | 1012.2 |
| 20260507044559 | 0 | 0.0 | 0.0 | 0.00 | 0.00 | 0.00 | 1 | 1012.1 | |
| 20260507043555 | 0 | 315 | 1.0 | 2.0 | 0.00 | 0.00 | 0.00 | 1 | 1012.2 |
| 20260507042548 | 0 | 315 | 1.0 | 2.0 | 0.00 | 0.00 | 0.00 | 1 | 1012.2 |
| 20260507041542 | 0 | 315 | 1.0 | 2.0 | 0.00 | 0.00 | 0.00 | 1 | 1012.3 |
| 20260507040539 | 0 | 315 | 1.0 | 2.0 | 0.00 | 0.00 | 0.00 | 1 | 1012.4 |
| 20260507035554 | 0 | 315 | 1.0 | 2.0 | 0.00 | 0.00 | 0.00 | 1 | 1012.3 |
| 20260507034549 | 0 | 0.0 | 2.0 | 0.00 | 0.00 | 0.00 | 1 | 1012.2 | |
| 20260507033522 | 0 | 0.0 | 0.0 | 0.00 | 0.00 | 0.00 | 1 | 1012.3 | |
| 20260507032537 | 0 | 315 | 0.0 | 2.0 | 0.00 | 0.00 | 0.00 | 1 | 1012.4 |
| 20260507031632 | 0 | 0.0 | 0.0 | 0.00 | 0.00 | 0.00 | 1 | 1012.4 | |
| 20260507030607 | 0 | 0.0 | 2.0 | 0.00 | 0.00 | 0.00 | 1 | 1012.3 | |
| 20260507025623 | 0 | 315 | 1.0 | 2.0 | 0.00 | 0.00 | 0.00 | 1 | 1012.4 |
| 20260507024558 | 0 | 315 | 1.0 | 4.0 | 0.00 | 0.00 | 0.00 | 1 | 1012.2 |
| 20260507023551 | 0 | 315 | 2.0 | 6.0 | 0.00 | 0.00 | 0.00 | 1 | 1012.2 |
| 20260507022546 | 0 | 315 | 2.0 | 4.0 | 0.00 | 0.00 | 0.00 | 1 | 1012.2 |
| 20260507021541 | 0 | 315 | 2.0 | 4.0 | 0.00 | 0.00 | 0.00 | 1 | 1012.3 |
| 20260507020537 | 0 | 315 | 2.0 | 4.0 | 0.00 | 0.00 | 0.00 | 1 | 1012.2 |
| 20260507015531 | 0 | 315 | 2.0 | 4.0 | 0.00 | 0.00 | 0.00 | 1 | 1012.3 |
| 20260507014547 | 0 | 315 | 3.0 | 7.0 | 0.00 | 0.00 | 0.00 | 1 | 1012.6 |
| 20260507013545 | 0 | 315 | 3.0 | 6.0 | 0.00 | 0.00 | 0.00 | 1 | 1012.6 |
| 20260507012519 | 0 | 315 | 4.0 | 6.0 | 0.00 | 0.00 | 0.00 | 1 | 1012.5 |
| 20260507011612 | 0 | 315 | 3.0 | 6.0 | 0.00 | 0.00 | 0.00 | 1 | 1012.4 |
| 20260507010608 | 0 | 315 | 4.0 | 7.0 | 0.00 | 0.00 | 0.00 | 1 | 1012.5 |
| 20260507005601 | 0 | 315 | 3.0 | 7.0 | 0.00 | 0.00 | 0.00 | 1 | 1012.6 |
| 20260507004558 | 0 | 315 | 3.0 | 6.0 | 0.00 | 0.00 | 0.00 | 1 | 1012.8 |
| 20260507003552 | 0 | 315 | 3.0 | 4.0 | 0.00 | 0.00 | 0.00 | 1 | 1012.7 |
| 20260507002547 | 0 | 315 | 2.0 | 4.0 | 0.00 | 0.00 | 0.00 | 1 | 1012.7 |
| 20260507001542 | 0 | 315 | 3.0 | 7.0 | 0.00 | 0.00 | 0.00 | 1 | 1012.8 |
| 20260507000538 | 0 | 315 | 3.0 | 4.0 | 0.00 | 0.00 | 0.00 | 1 | 1012.9 |
| 20260506235533 | 0 | 315 | 3.0 | 7.0 | 0.00 | 0.00 | 0.00 | 1 | 1013.0 |
| 20260506234528 | 0 | 315 | 3.0 | 7.0 | 0.00 | 0.00 | 0.00 | 1 | 1012.9 |
| 20260506233523 | 0 | 315 | 3.0 | 8.0 | 0.00 | 0.00 | 0.00 | 1 | 1012.9 |
| 20260506232538 | 0 | 315 | 4.0 | 6.0 | 0.00 | 0.00 | 0.00 | 1 | 1012.8 |
| 20260506231612 | 0 | 315 | 3.0 | 6.0 | 0.00 | 0.00 | 0.00 | 1 | 1013.0 |
| 20260506230607 | 0 | 5 | 3.0 | 6.0 | 0.00 | 0.00 | 0.00 | 1 | 1013.0 |
| 20260506225603 | 0 | 349 | 4.0 | 7.0 | 0.00 | 0.00 | 0.00 | 1 | 1012.9 |
| 20260506224555 | 56 | 34 | 5.0 | 7.0 | 0.00 | 0.00 | 0.00 | 27 | 1012.8 |
| 20260506223551 | 56 | 35 | 3.0 | 6.0 | 0.00 | 0.00 | 0.00 | 77 | 1012.9 |
| 20260506222547 | 56 | 34 | 2.0 | 4.0 | 0.00 | 0.00 | 0.00 | 77 | 1012.9 |
| 20260506221539 | 57 | 347 | 2.0 | 4.0 | 0.00 | 0.00 | 0.00 | 77 | 1012.9 |
| 20260506220533 | 57 | 349 | 1.0 | 2.0 | 0.00 | 0.00 | 0.00 | 76 | 1012.8 |
| 20260506215525 | 57 | 63 | 1.0 | 4.0 | 0.00 | 0.00 | 0.00 | 76 | 1012.8 |
| 20260506214521 | 57 | 344 | 1.0 | 4.0 | 0.00 | 0.00 | 0.00 | 76 | 1012.7 |
| 20260506213616 | 57 | 54 | 2.0 | 4.0 | 0.00 | 0.00 | 0.00 | 75 | 1012.7 |
| 20260506212610 | 57 | 57 | 4.0 | 6.0 | 0.00 | 0.00 | 0.00 | 75 | 1012.8 |
| 20260506211626 | 58 | 31 | 3.0 | 7.0 | 0.00 | 0.00 | 0.00 | 74 | 1012.8 |
| 20260506210600 | 58 | 82 | 3.0 | 4.0 | 0.00 | 0.00 | 0.00 | 72 | 1012.7 |
| 20260506205553 | 58 | 93 | 1.0 | 4.0 | 0.00 | 0.00 | 0.00 | 71 | 1012.7 |
| 20260506204548 | 58 | 90 | 1.0 | 2.0 | 0.00 | 0.00 | 0.00 | 70 | 1012.4 |
| 20260506203542 | 58 | 87 | 1.0 | 4.0 | 0.00 | 0.00 | 0.00 | 70 | 1012.3 |